www.pogodaiklimat.ru

Погода и климат >> Архив погоды >> Украина >> Ильичевск


ПОГОДА в Ильичевске

  • Прогноз погоды в Ильичевске
  • Монитор погоды в Ильичевске

АРХИВ ПОГОДЫ в Ильичевске

Время (UTC), дата Ветер
(напр.,м/с)
 
Видим.   Явления Облачность Т
(С)
Тd
(С)
f
(%)
Тe
(С)
Тes
(С)
Комфортность P
(гПа)
Po
(гПа)
Тmin
(С)
Tmax
(С)
R
(мм)
R24
(мм)
S
(см)
00 14.06 С 3 35 км 6/0
[Ac trans]
+23.3 +14.3 57 +27 +27 душно 1015.4 1013.2
06 14.06 СВ 4 30 км 6/0
[Ci]
+23.9 +16.7 64 +27 +32 жарко 1016.4 1014.2 +21.1
12 14.06 ЮВ 1 35 км 9/3 600 м
[Cu med, cong Ac und Ci fib]
+27.5 +19.8 63 +33 +41 очень
душно
1017.2 1015.0
15 14.06 С 2 30 км 9/1 600 м
[Cu med, cong Ac und Ci fib]
+27.8 +18.5 57 +33 +35 очень
душно
1015.7 1013.5
18 14.06 штиль 0 20 км 9/0
[Ac und Ci sp]
+26.3 +19.4 66 +32 +32 очень
душно
1016.2 1014.0 +29.7
00 15.06 штиль 0 25 км 8/0
[Ac und Ci fib]
+23.1 +18.0 73 +29 +29 очень
душно
1016.4 1014.2
03 15.06 СЗ 2 22 км 5/0
[Ci fib]
+23.0 +19.0 78 +29 +29 очень
душно
1015.9 1013.7
06 15.06 В 2 25 км 3/0
[Ci fib]
+26.7 +21.2 72 +34 +42 очень
душно
1016.3 1014.1 +22.4
09 15.06 ЮВ 2 18 км 5/3 600 м
[Cu hum Ci fib]
+26.8 +21.6 73 +34 +46 очень
душно
1016.0 1013.8
12 15.06 Ю 2 20 км 5/3 600 м
[Cu med, cong Ci fib]
+28.1 +19.3 59 +34 +44 очень
душно
1014.2 1012.0
18 15.06 З 1 25 км 8/0
[Ci]
+27.7 +17.0 52 +32 +32 очень
душно
1012.7 1010.5 +29.2
21 15.06 С 2 23 км 5/0
[Ci fib]
+25.1 +19.0 69 +30 +30 душно 1013.6 1011.4
00 16.06 СЗ 3 20 км ясно +22.9 +19.1 79 +29 +29 очень
душно
1012.7 1010.5
03 16.06 СЗ 2 15 км 3/0
[Ci fib]
+22.0 +19.0 83 +27 +28 душно 1012.4 1010.2
06 16.06 СВ 2 20 км ясно +27.6 +19.4 61 +33 +42 очень
душно
1013.1 1010.9 +21.7
12 16.06 Ю 2 50 км 3/3 600 м
[Cu med, cong]
+30.7 +14.8 38 +33 +44 душно 1012.8 1010.6
18 16.06 З 1 40 км 8/5 600 м
[Sc diur, vesp Ci]
+29.3 +12.3 35 +30 +30 жарко 1011.8 1009.6 +31.8
21 16.06 С 2 30 км 4/0
[Ac trans]
+29.1 +15.6 44 +32 +32 душно 1012.4 1010.2
00 17.06 СВ 2 17 км ясно +25.7 +18.9 66 +31 +31 очень
душно
1013.2 1011.0
03 17.06 С 1 25 км ясно +24.0 +15.2 58 +27 +27 жарко 1014.0 1011.8
06 17.06 СВ 3 30 км 3/0
[Ci fib]
+25.6 +17.0 59 +29 +36 душно 1014.7 1012.5 +24.0
09 17.06 В 3 25 км 5/0
[Ci fib]
+27.8 +18.8 58 +33 +46 очень
душно
1015.0 1012.8
12 17.06 ЮВ 2 35 км 8/0
[Ci]
+28.3 +17.8 53 +33 +46 очень
душно
1014.5 1012.3
15 17.06 ЮВ 1 40 км 3/0
[Ci fib]
+28.6 +15.5 45 +31 +36 жарко 1013.6 1011.4
18 17.06 С 1 28 км ясно +28.0 +16.9 51 +32 +32 душно 1014.0 1011.8 +29.0
21 17.06 СВ 2 20 км 3/0
[Ac trans]
+26.3 +19.4 66 +32 +32 очень
душно
1015.4 1013.2
00 18.06 СЗ 2 23 км ясно +23.1 +15.7 63 +27 +27 душно 1015.2 1013.0
03 18.06 СЗ 3 20 км ясно +22.1 +15.9 68 +26 +26 душно 1015.1 1012.9
06 18.06 СВ 3 14 км ясно +26.1 +15.2 51 +29 +36 жарко 1015.8 1013.6 +21.8
09 18.06 ЮВ 2 50 км 3/3 600 м
[Cu med, cong]
+27.4 +16.4 51 +31 +43 душно 1016.5 1014.3
12 18.06 ЮВ 4 50 км 3/3 600 м
[Cu med, cong]
+28.1 +16.4 49 +32 +39 душно 1015.4 1013.2
18 18.06 З 2 30 км ясно +26.6 +11.1 38 +28 +28 жарко 1014.0 1011.8 +29.6
00 19.06 СЗ 3 20 км ясно +22.9 +14.8 60 +27 +27 душно 1014.0 1011.8
06 19.06 СВ 4 30 км ясно +26.2 +20.1 69 +32 +38 очень
душно
1014.5 1012.3 +22.3
12 19.06 ЮВ 2 50 км 5/5 600 м
[Cu med, cong]
+29.2 +20.6 60 +36 +44 очень
душно
1013.4 1011.2
18 19.06 СЗ 3 50 км 6/6 720 м
[Sc]
+27.3 +16.6 52 +31 +31 душно 1012.2 1010.0 +31.1
06 20.06 СВ 3 35 км 8/0
[Ci]
+27.7 +17.3 53 +32 +38 очень
душно
1012.4 1010.2 +24.7
12 20.06 Ю 2 30 км 8/3 600 м
[Cu med, cong Ci]
+28.2 +20.0 61 +34 +44 очень
душно
1011.9 1009.7
18 20.06 СЗ 1 50 км 8/5 600 м
[Sc diur, vesp Ci]
+27.6 +14.6 45 +30 +30 жарко 1011.9 1009.7 +30.8

 

Местоположение метеостанции Ильичевск (Одесская область, Украина): широта 46.40 долгота 30.70 высота над уровнем моря 52 м.

В архиве по умолчанию представлена погода в Ильичевске за последнюю неделю. Архивные данные за месяц целиком и за предыдущие месяцы, начиная с января 2011 года, Вы можете получить, выбрав интересующий диапазон дат из раскрывающегося списка и нажав кнопку "Ввод!".


*Определитесь, кто Вы:
робот инопланетянин человек

Внимание! Время в таблицах - всемирное. Для получения местного времени необходимо прибавить поправку, которая равна 2 ч.

Смотрите также архив погоды в соседних городах и на ближайших метеорологических станциях:

Погода в Одессе (Одесская область, Украина) (6 км)
Погода в Белгород-Днестровском (Одесская область, Украина) (35 км)
Погода в Раздельной (Одесская область, Украина) (69 км)
Погода в Сербке (Одесская область, Украина) (69 км)
Погода в Заставе (Одесская область, Украина) (70 км)
Погода в Очакове (Николаевская область, Украина) (70 км)
Погода в Сарате (Одесская область, Украина) (90 км)
Погода в Штефан Водэ (Молдова) (94 км)
Погода в Тирасполе (Молдова) (101 км)
Погода в Вилково (Одесская область, Украина) (108 км)

Пояснения к столбцам:

Ветер - указаны скорость ветра в м/с - средняя за 10 мин, порывы в срок и между сроками (в фигурных скобках) и направление, откуда дует ветер: С - северный, СВ - северо-восточный, В - восточный, ЮВ - юго-восточный, Ю - южный, ЮЗ - юго-западный, З - западный, СЗ - северо-западный.
Видимость - горизонтальная дальность видимости в метрах или километрах. При видимости от 1 до 10 км при отсутствии осадков обычно наблюдается дымка, при ухудшении видимости до 1 км и менее - туман. В сухую погоду видимость может ухудшаться дымом, пылью или мглою.
Явления - указаны атмосферные явления, наблюдавшиеся в срок или в последний час перед сроком; фигурными скобками обозначены явления, наблюдавшиеся между сроками (за 1-3 часа до срока); квадратными скобками обозначены град или гололедные отложения с указанием их диаметра в мм.
Облачность - указаны через наклонную черту общая и нижняя облачность в баллах и высота нижней границы облаков в метрах; квадратными скобками обозначены формы облаков: Ci - перистые, Cs - перисто-слоистые, Cc - перисто-кучевые, Ac - высококучевые, As - высокослоистые, Sc - слоисто-кучевые, Ns - слоисто-дождевые, Cu - кучевые, Cb - кучево-дождевые. Подробнее классификацию облаков см. в Атласе облаков (PDF).
T - Температура воздуха - температура, измеренная на высоте 2 м над землей.
Td - Температура точки росы - температура, при понижении до которой содержащийся в воздухе водяной пар достигнет насыщения.
f - Относительная влажность воздуха - влажноcть воздуха, измеренная на высоте 2 м над землей.
Te - Эффективная температура - температура, которую ощущает одетый по сезону человек в тени. Характеристика душности погоды. При расчете учитывается влияние влажности воздуха и скорости ветра на теплоощущения человека.
Tes - Эффективная температура на солнце - температура, которую ощущает человек, с поправкой на солнечный нагрев. Характеристика знойности погоды. Зависит от высоты солнца над горизонтом, облачности и скорости ветра. Ночью, в пасмурную погоду, а также при ветре 12 м/с и более поправка равна нулю.
P - Атмосферное давление - приведенное к уровню моря атмосферное давление.
Po - Атмосферное давление - измеренное на уровне метеостанции атмосферное давление.
Tmin - Минимальная температура - минимум температуры воздуха на высоте 2 м над землей.
Tmax - Максимальная температура - максимум температуры воздуха на высоте 2 м над землей.
R - Количество осадков - Количество выпавших осадков за период времени, мм. При наведении курсора мыши на число - период времени, за который выпало указанное количество осадков.
R24 - Количество осадков - Количество выпавших осадков за 24 часа, мм.
S - Снежный покров - Высота снежного покрова, см. При наведении курсора мыши на число - состояние снежного покрова и степень покрытия местности в баллах.